Regional Weather Roundup
Issued by NWS Spokane, WA

Home | Current Version | Previous Version | Text Only | Print | Product List | Glossary On
Versions: 1 2 3 4 5 6 7 8 9 10 11 12 13 14 15 16 17 18 19 20 21 22 23 24 25 26 27 28 29 30 31 32 33 34 35 36 37 38 39 40 41 42 43 44 45 46 47 48 49 50
000
NZUS01 KOTX 060625
RWROTX

Eastern Washington/Northern Idaho Roundup
National Weather Service, Spokane WA
1000 PM PST MON DEC 05 2016

Note: "fair" indicated few or no clouds below 12,000 feet with no
significant weather and/or obstructions to visibility.

...Northeast Washington and Northern Idaho Panhandle...

CITY           SKY/WX    TMP DP  RH WIND       PRES   REMARKS
Spokane Intl   FLURRIES  28  22  78 E10       29.97S WCI  19
Spokane Downto CLOUDY    31  23  72 E8        30.00S WCI  23
Coeur d Alene  CLOUDY    26  22  84 N9        29.99F WCI  17
Deer Park      CLOUDY    27  19  72 NE9       30.00S WCI  18
Sandpoint      PTCLDY    23  16  74 NE10      30.04S WCI  12
Bonners Ferry  CLOUDY    21  14  73 CALM      30.05S

...Southeast Washington and southern Idaho Panhandle...

CITY           SKY/WX    TMP DP  RH WIND       PRES   REMARKS
Walla Walla    LGT SNOW  32  30  92 N5        29.95F FOG     WCI  27
Pullman/Moscow LGT SNOW  28  22  78 E8        29.95F WCI  20
Lewiston       CLOUDY    33  23  66 NE12      29.98F WCI  24
Lowell           N/A     28  24  85 CALM      30.07F
Grangeville    CLOUDY    27  16  63 E9        29.91F WCI  17

...Columbia Basin...

CITY           SKY/WX    TMP DP  RH WIND       PRES   REMARKS
Ephrata        LGT SNOW  28  22  78 N8        29.97F WCI  20
Moses Lake     CLOUDY    30  28  93 E5        29.99S WCI  25
Pasco          CLOUDY    32  32 100 NW10      30.01S WCI  24
Richland       LGT SNOW  33  33  99 NW9G16    30.02S WCI  25
Hermiston      CLOUDY    34  32  92 SE3       29.97F
Pendleton      SNOW      31  30  96 S3        29.93S VSB 1/4

...East Slopes Cascades...

CITY           SKY/WX    TMP DP  RH WIND       PRES   REMARKS
The Dalles     CLOUDY    35  32  88 W3        30.02R
Yakima         MOCLDY    34  27  75 N5        29.98S WCI  30
Ellensburg     PTCLDY    24  21  88 NE5       29.96S WCI  18
Stampede Pass  CLOUDY    20  20 100 CALM      29.85S
Wenatchee      CLOUDY    28  28 100 W6        30.01S WCI  22
Omak           CLOUDY    28  19  69 N15       30.05F WCI  16
Chelan           N/A     29  21  74 NW5         N/A  WCI  23
Sunnyside      CLOUDY    30  28  90 S5        30.00R WCI  25

...Southern British Columbia...

CITY           SKY/WX    TMP DP  RH WIND       PRES   REMARKS
Penticton      MOCLDY    28  21  74 N7        30.11S WCI  21
Cranbrook      MOCLDY    12   7  79 W8        30.02S WCI   1
Osoyoos          N/A     30  27  86 NW5         N/A  WCI  25
Creston          N/A     21  12  68 NE2         N/A

...Western Montana...

CITY           SKY/WX    TMP DP  RH WIND       PRES   REMARKS
Kalispell      CLOUDY    17  15  92 NE3       30.02S
Libby            N/A     16  12  86 CALM      30.04S
Missoula       CLOUDY    21  16  81 CALM      30.02S

...Neighboring Cities...

CITY           SKY/WX    TMP DP  RH WIND       PRES   REMARKS
Seattle        PTCLDY    35  33  92 SE6       30.01S
Portland       CLOUDY    37  34  89 S6        30.03S
Boise          CLEAR     25  14  63 SE9       30.01S WCI  15
Great Falls    PTCLDY    -1  -4  87 SW5       30.09S WCI -11
Calgary        MOCLDY     0  -9  65 N16       30.14S WCI -21



USA.gov is the U.S. government's official web portal to all federal, state and local government web resources and services.